Time,TemperatureF,DewpointF,PressureIn,WindDirection,WindDirectionDegrees,WindSpeedMPH,WindSpeedGustMPH,Humidity,HourlyPrecipIn,Conditions,Clouds,dailyrainin,SoftwareType,DateUTC
2013-04-07 00:00:00,37.8,25.2,30.29,South,190,3.0,5.0,60,0.00,,---,0.00,VWS V14.01,2013-04-07 04:00:00,
2013-04-07 00:04:00,37.8,25.2,30.29,South,190,0.0,3.0,60,0.00,,---,0.00,VWS V14.01,2013-04-07 04:04:00,
2013-04-07 00:05:00,37.7,25.1,30.29,South,190,0.0,3.0,60,0.00,,---,0.00,VWS V14.01,2013-04-07 04:05:00,
2013-04-07 00:10:00,37.7,25.1,30.29,South,187,0.0,4.0,60,0.00,,---,0.00,VWS V14.01,2013-04-07 04:10:00,
2013-04-07 00:15:00,37.7,25.1,30.29,South,181,1.0,4.0,60,0.00,,---,0.00,VWS V14.01,2013-04-07 04:15:00,
2013-04-07 00:20:00,37.6,25.4,30.29,ESE,109,0.0,2.0,61,0.00,,---,0.00,VWS V14.01,2013-04-07 04:20:00,
2013-04-07 00:26:00,37.6,25.4,30.29,SSW,205,0.0,4.0,61,0.00,,---,0.00,VWS V14.01,2013-04-07 04:26:00,
2013-04-07 00:30:00,37.6,25.4,30.29,South,184,3.0,5.0,61,0.00,,---,0.00,VWS V14.01,2013-04-07 04:30:00,
2013-04-07 00:32:00,37.6,25.4,30.29,SW,215,3.0,7.0,61,0.00,,---,0.00,VWS V14.01,2013-04-07 04:32:00,
2013-04-07 00:37:00,37.6,25.4,30.29,SW,215,0.0,8.0,61,0.00,,---,0.00,VWS V14.01,2013-04-07 04:37:00,
2013-04-07 00:42:00,37.5,25.3,30.29,SSW,207,5.0,8.0,61,0.00,,---,0.00,VWS V14.01,2013-04-07 04:42:00,
2013-04-07 00:45:00,37.5,25.3,30.29,SSW,207,2.0,8.0,61,0.00,,---,0.00,VWS V14.01,2013-04-07 04:45:00,
2013-04-07 00:47:00,37.4,25.2,30.29,SSW,207,0.0,3.0,61,0.00,,---,0.00,VWS V14.01,2013-04-07 04:47:00,
2013-04-07 00:53:00,37.3,25.5,30.29,SSW,202,1.0,3.0,62,0.00,,---,0.00,VWS V14.01,2013-04-07 04:53:00,
2013-04-07 00:58:00,37.2,25.4,30.29,SSW,208,1.0,5.0,62,0.00,,---,0.00,VWS V14.01,2013-04-07 04:58:00,
2013-04-07 01:00:00,37.2,25.4,30.29,SSW,208,0.0,5.0,62,0.00,,---,0.00,VWS V14.01,2013-04-07 05:00:00,
2013-04-07 01:03:00,37.2,25.4,30.29,SSW,213,3.0,6.0,62,0.00,,---,0.00,VWS V14.01,2013-04-07 05:03:00,
2013-04-07 01:08:00,37.3,25.9,30.29,SSW,209,0.0,6.0,63,0.00,,---,0.00,VWS V14.01,2013-04-07 05:08:00,
2013-04-07 01:14:00,37.3,25.9,30.29,SSW,211,2.0,6.0,63,0.00,,---,0.00,VWS V14.01,2013-04-07 05:14:00,
2013-04-07 01:15:00,37.3,25.9,30.29,SSW,211,0.0,6.0,63,0.00,,---,0.00,VWS V14.01,2013-04-07 05:15:00,
2013-04-07 01:19:00,37.3,25.9,30.29,WSW,238,2.0,5.0,63,0.00,,---,0.00,VWS V14.01,2013-04-07 05:19:00,
2013-04-07 01:24:00,37.3,25.9,30.29,SW,215,3.0,5.0,63,0.00,,---,0.00,VWS V14.01,2013-04-07 05:24:00,
2013-04-07 01:29:00,37.3,25.9,30.30,WSW,246,3.0,7.0,63,0.00,,---,0.00,VWS V14.01,2013-04-07 05:29:00,
2013-04-07 01:30:00,37.4,26.0,30.30,SW,225,4.0,7.0,63,0.00,,---,0.00,VWS V14.01,2013-04-07 05:30:00,
2013-04-07 01:34:00,37.4,26.0,30.30,WSW,239,3.0,7.0,63,0.00,,---,0.00,VWS V14.01,2013-04-07 05:34:00,
2013-04-07 01:40:00,37.3,26.3,30.30,SSW,201,2.0,7.0,64,0.00,,---,0.00,VWS V14.01,2013-04-07 05:40:00,
2013-04-07 01:45:00,37.2,26.2,30.29,SW,232,2.0,7.0,64,0.00,,---,0.00,VWS V14.01,2013-04-07 05:45:00,
2013-04-07 01:51:00,37.2,26.2,30.30,SSW,205,1.0,7.0,64,0.00,,---,0.00,VWS V14.01,2013-04-07 05:51:00,
2013-04-07 01:56:00,37.1,26.1,30.29,SW,223,3.0,7.0,64,0.00,,---,0.00,VWS V14.01,2013-04-07 05:56:00,
2013-04-07 02:00:00,37.0,26.0,30.29,SW,219,1.0,7.0,64,0.00,,---,0.00,VWS V14.01,2013-04-07 06:00:00,
2013-04-07 02:01:00,37.0,26.0,30.29,SW,219,0.0,1.0,64,0.00,,---,0.00,VWS V14.01,2013-04-07 06:01:00,
2013-04-07 02:07:00,36.9,26.2,30.29,SW,219,1.0,4.0,65,0.00,,---,0.00,VWS V14.01,2013-04-07 06:07:00,
2013-04-07 02:12:00,37.0,26.3,30.29,SW,229,3.0,10.0,65,0.00,,---,0.00,VWS V14.01,2013-04-07 06:12:00,
2013-04-07 02:15:00,37.0,26.3,30.29,SW,232,4.0,10.0,65,0.00,,---,0.00,VWS V14.01,2013-04-07 06:15:00,
2013-04-07 02:17:00,37.0,26.3,30.29,SW,235,3.0,5.0,65,0.00,,---,0.00,VWS V14.01,2013-04-07 06:17:00,
2013-04-07 02:22:00,37.0,26.3,30.28,SW,234,2.0,5.0,65,0.00,,---,0.00,VWS V14.01,2013-04-07 06:22:00,
2013-04-07 02:28:00,36.8,26.5,30.28,SW,221,3.0,5.0,66,0.00,,---,0.00,VWS V14.01,2013-04-07 06:28:00,
2013-04-07 02:30:00,36.8,26.5,30.28,SW,226,2.0,5.0,66,0.00,,---,0.00,VWS V14.01,2013-04-07 06:30:00,
2013-04-07 02:33:00,36.7,26.4,30.28,SW,226,3.0,3.0,66,0.00,,---,0.00,VWS V14.01,2013-04-07 06:33:00,
2013-04-07 02:38:00,36.7,26.4,30.28,SSW,207,2.0,5.0,66,0.00,,---,0.00,VWS V14.01,2013-04-07 06:38:00,
2013-04-07 02:44:00,36.8,26.5,30.28,SW,215,0.0,5.0,66,0.00,,---,0.00,VWS V14.01,2013-04-07 06:44:00,
2013-04-07 02:45:00,36.7,26.4,30.28,SW,215,4.0,5.0,66,0.00,,---,0.00,VWS V14.01,2013-04-07 06:45:00,
2013-04-07 02:49:00,36.8,26.9,30.28,SSW,210,4.0,5.0,67,0.00,,---,0.00,VWS V14.01,2013-04-07 06:49:00,
2013-04-07 02:54:00,36.7,26.8,30.28,SW,218,2.0,7.0,67,0.00,,---,0.00,VWS V14.01,2013-04-07 06:54:00,
2013-04-07 03:00:00,36.8,26.9,30.28,SSW,204,5.0,7.0,67,0.00,,---,0.00,VWS V14.01,2013-04-07 07:00:00,
2013-04-07 03:05:00,36.8,26.9,30.27,SSE,167,7.0,7.0,67,0.00,,---,0.00,VWS V14.01,2013-04-07 07:05:00,
2013-04-07 03:10:00,36.8,26.9,30.27,SSW,212,3.0,8.0,67,0.00,,---,0.00,VWS V14.01,2013-04-07 07:10:00,
2013-04-07 03:15:00,36.7,26.8,30.27,SSW,198,3.0,8.0,67,0.00,,---,0.00,VWS V14.01,2013-04-07 07:15:00,
2013-04-07 03:16:00,36.7,26.8,30.27,SSW,198,3.0,8.0,67,0.00,,---,0.00,VWS V14.01,2013-04-07 07:16:00,
2013-04-07 03:21:00,36.7,27.1,30.26,SSW,199,4.0,8.0,68,0.00,,---,0.00,VWS V14.01,2013-04-07 07:21:00,
2013-04-07 03:27:00,36.7,27.1,30.27,SSW,193,1.0,8.0,68,0.00,,---,0.00,VWS V14.01,2013-04-07 07:27:00,
2013-04-07 03:30:00,36.6,27.0,30.27,SW,234,4.0,8.0,68,0.00,,---,0.00,VWS V14.01,2013-04-07 07:30:00,
2013-04-07 03:32:00,36.6,27.0,30.27,SW,224,3.0,4.0,68,0.00,,---,0.00,VWS V14.01,2013-04-07 07:32:00,
2013-04-07 03:37:00,36.6,27.0,30.26,SSW,208,3.0,6.0,68,0.00,,---,0.00,VWS V14.01,2013-04-07 07:37:00,
2013-04-07 03:43:00,36.6,27.0,30.27,SSW,208,0.0,6.0,68,0.00,,---,0.00,VWS V14.01,2013-04-07 07:43:00,
2013-04-07 03:45:00,36.6,27.0,30.27,WSW,242,0.0,6.0,68,0.00,,---,0.00,VWS V14.01,2013-04-07 07:45:00,
2013-04-07 03:48:00,36.6,27.0,30.27,WSW,242,2.0,3.0,68,0.00,,---,0.00,VWS V14.01,2013-04-07 07:48:00,
2013-04-07 03:53:00,36.6,27.4,30.27,WSW,242,0.0,3.0,69,0.00,,---,0.00,VWS V14.01,2013-04-07 07:53:00,
2013-04-07 03:59:00,36.6,27.4,30.27,WSW,242,1.0,3.0,69,0.00,,---,0.00,VWS V14.01,2013-04-07 07:59:00,
2013-04-07 04:00:00,36.6,27.4,30.27,ESE,111,0.0,3.0,69,0.00,,---,0.00,VWS V14.01,2013-04-07 08:00:00,
2013-04-07 04:04:00,36.6,27.4,30.27,SW,232,0.0,3.0,69,0.00,,---,0.00,VWS V14.01,2013-04-07 08:04:00,
2013-04-07 04:10:00,36.6,27.4,30.27,South,177,0.0,3.0,69,0.00,,---,0.00,VWS V14.01,2013-04-07 08:10:00,
2013-04-07 04:15:00,36.7,27.5,30.27,SSW,204,2.0,4.0,69,0.00,,---,0.00,VWS V14.01,2013-04-07 08:15:00,
2013-04-07 04:20:00,36.8,27.6,30.27,SSW,205,1.0,4.0,69,0.00,,---,0.00,VWS V14.01,2013-04-07 08:20:00,
2013-04-07 04:25:00,36.8,27.6,30.27,South,188,0.0,6.0,69,0.00,,---,0.00,VWS V14.01,2013-04-07 08:25:00,
2013-04-07 04:30:00,36.8,27.6,30.27,SW,230,3.0,7.0,69,0.00,,---,0.00,VWS V14.01,2013-04-07 08:30:00,
2013-04-07 04:35:00,36.8,27.6,30.27,South,175,4.0,5.0,69,0.00,,---,0.00,VWS V14.01,2013-04-07 08:35:00,
2013-04-07 04:41:00,36.8,28.0,30.27,South,179,3.0,5.0,70,0.00,,---,0.00,VWS V14.01,2013-04-07 08:41:00,
2013-04-07 04:45:00,36.7,27.9,30.27,SE,132,2.0,5.0,70,0.00,,---,0.00,VWS V14.01,2013-04-07 08:45:00,
2013-04-07 04:46:00,36.7,27.9,30.27,SE,132,3.0,5.0,70,0.00,,---,0.00,VWS V14.01,2013-04-07 08:46:00,
2013-04-07 04:51:00,36.6,27.8,30.27,South,182,0.0,4.0,70,0.00,,---,0.00,VWS V14.01,2013-04-07 08:51:00,
2013-04-07 04:56:00,36.6,27.8,30.27,SSW,196,4.0,8.0,70,0.00,,---,0.00,VWS V14.01,2013-04-07 08:56:00,
2013-04-07 05:00:00,36.6,27.8,30.27,SSW,202,1.0,8.0,70,0.00,,---,0.00,VWS V14.01,2013-04-07 09:00:00,
2013-04-07 05:02:00,36.6,27.8,30.27,SSW,202,2.0,2.0,70,0.00,,---,0.00,VWS V14.01,2013-04-07 09:02:00,
2013-04-07 05:07:00,36.6,27.8,30.27,SSW,201,2.0,3.0,70,0.00,,---,0.00,VWS V14.01,2013-04-07 09:07:00,
2013-04-07 05:12:00,36.7,28.2,30.27,South,178,2.0,5.0,71,0.00,,---,0.00,VWS V14.01,2013-04-07 09:12:00,
2013-04-07 05:15:00,36.7,28.2,30.27,South,177,1.0,5.0,71,0.00,,---,0.00,VWS V14.01,2013-04-07 09:15:00,
2013-04-07 05:18:00,36.7,28.2,30.27,SSE,165,0.0,5.0,71,0.00,,---,0.00,VWS V14.01,2013-04-07 09:18:00,
2013-04-07 05:23:00,36.6,28.1,30.27,SSE,165,0.0,5.0,71,0.00,,---,0.00,VWS V14.01,2013-04-07 09:23:00,
2013-04-07 05:28:00,36.6,28.1,30.27,SSE,147,1.0,5.0,71,0.00,,---,0.00,VWS V14.01,2013-04-07 09:28:00,
2013-04-07 05:30:00,36.5,28.0,30.27,SSE,150,0.0,5.0,71,0.00,,---,0.00,VWS V14.01,2013-04-07 09:30:00,
2013-04-07 05:34:00,36.5,28.0,30.27,SSE,150,0.0,3.0,71,0.00,,---,0.00,VWS V14.01,2013-04-07 09:34:00,
2013-04-07 05:39:00,36.5,28.0,30.27,SSE,150,0.0,3.0,71,0.00,,---,0.00,VWS V14.01,2013-04-07 09:39:00,
2013-04-07 05:45:00,36.4,28.2,30.27,SSE,150,0.0,3.0,72,0.00,,---,0.00,VWS V14.01,2013-04-07 09:45:00,
2013-04-07 05:50:00,36.4,28.2,30.27,SSE,150,0.0,1.0,72,0.00,,---,0.00,VWS V14.01,2013-04-07 09:50:00,
2013-04-07 05:56:00,36.4,28.2,30.27,SSE,150,2.0,3.0,72,0.00,,---,0.00,VWS V14.01,2013-04-07 09:56:00,
2013-04-07 06:00:00,36.5,28.4,30.27,SSE,155,0.0,3.0,72,0.00,,---,0.00,VWS V14.01,2013-04-07 10:00:00,
2013-04-07 06:01:00,36.5,28.4,30.27,SSE,155,0.0,0.0,72,0.00,,---,0.00,VWS V14.01,2013-04-07 10:01:00,
2013-04-07 06:07:00,36.4,28.2,30.27,SSE,155,0.0,0.0,72,0.00,,---,0.00,VWS V14.01,2013-04-07 10:07:00,
2013-04-07 06:12:00,36.4,28.2,30.27,SSE,155,0.0,1.0,72,0.00,,---,0.00,VWS V14.01,2013-04-07 10:12:00,
2013-04-07 06:15:00,36.5,28.4,30.27,SSE,155,0.0,1.0,72,0.00,,---,0.00,VWS V14.01,2013-04-07 10:15:00,
2013-04-07 06:17:00,36.4,28.2,30.27,SSE,155,0.0,0.0,72,0.00,,---,0.00,VWS V14.01,2013-04-07 10:17:00,
2013-04-07 06:22:00,36.4,28.2,30.27,SW,231,2.0,4.0,72,0.00,,---,0.00,VWS V14.01,2013-04-07 10:22:00,
2013-04-07 06:28:00,36.6,28.4,30.27,SW,231,0.0,4.0,72,0.00,,---,0.00,VWS V14.01,2013-04-07 10:28:00,
2013-04-07 06:30:00,36.7,28.5,30.27,SW,231,0.0,4.0,72,0.00,,---,0.00,VWS V14.01,2013-04-07 10:30:00,
2013-04-07 06:33:00,36.8,28.6,30.27,SW,231,0.0,0.0,72,0.00,,---,0.00,VWS V14.01,2013-04-07 10:33:00,
2013-04-07 06:39:00,36.9,28.4,30.27,SW,231,0.0,2.0,71,0.00,,---,0.00,VWS V14.01,2013-04-07 10:39:00,
2013-04-07 06:44:00,37.1,28.6,30.27,SSW,206,2.0,5.0,71,0.00,,---,0.00,VWS V14.01,2013-04-07 10:44:00,
2013-04-07 06:45:00,37.2,28.7,30.27,SSW,208,3.0,5.0,71,0.00,,---,0.00,VWS V14.01,2013-04-07 10:45:00,
2013-04-07 06:49:00,37.4,28.9,30.27,SSW,207,0.0,4.0,71,0.00,,---,0.00,VWS V14.01,2013-04-07 10:49:00,
2013-04-07 06:54:00,37.5,29.0,30.27,SSW,207,0.0,4.0,71,0.00,,---,0.00,VWS V14.01,2013-04-07 10:54:00,
2013-04-07 06:59:00,37.6,29.1,30.27,SSW,207,0.0,4.0,71,0.00,,---,0.00,VWS V14.01,2013-04-07 10:59:00,
2013-04-07 07:00:00,37.7,28.8,30.27,SSW,207,0.0,4.0,70,0.00,,---,0.00,VWS V14.01,2013-04-07 11:00:00,
2013-04-07 07:04:00,37.7,28.8,30.27,SSW,207,0.0,0.0,70,0.00,,---,0.00,VWS V14.01,2013-04-07 11:04:00,
2013-04-07 07:10:00,37.9,29.0,30.27,SSW,207,0.0,1.0,70,0.00,,---,0.00,VWS V14.01,2013-04-07 11:10:00,
2013-04-07 07:15:00,38.0,29.1,30.27,SSW,207,0.0,2.0,70,0.00,,---,0.00,VWS V14.01,2013-04-07 11:15:00,
2013-04-07 07:20:00,38.2,28.9,30.27,SSW,207,0.0,2.0,69,0.00,,---,0.00,VWS V14.01,2013-04-07 11:20:00,
2013-04-07 07:25:00,38.3,28.7,30.27,ENE,61,0.0,4.0,68,0.00,,---,0.00,VWS V14.01,2013-04-07 11:25:00,
2013-04-07 07:30:00,38.6,28.6,30.27,SW,217,0.0,4.0,67,0.00,,---,0.00,VWS V14.01,2013-04-07 11:30:00,
2013-04-07 07:31:00,38.6,28.6,30.27,SW,217,0.0,4.0,67,0.00,,---,0.00,VWS V14.01,2013-04-07 11:31:00,
2013-04-07 07:36:00,38.7,28.7,30.26,SW,217,0.0,2.0,67,0.00,,---,0.00,VWS V14.01,2013-04-07 11:36:00,
2013-04-07 07:42:00,38.9,28.5,30.26,South,171,1.0,3.0,66,0.00,,---,0.00,VWS V14.01,2013-04-07 11:42:00,
2013-04-07 07:45:00,39.1,28.3,30.26,South,182,0.0,3.0,65,0.00,,---,0.00,VWS V14.01,2013-04-07 11:45:00,
2013-04-07 07:47:00,39.2,28.1,30.26,South,182,0.0,1.0,64,0.00,,---,0.00,VWS V14.01,2013-04-07 11:47:00,
2013-04-07 07:52:00,39.5,28.4,30.26,South,175,2.0,4.0,64,0.00,,---,0.00,VWS V14.01,2013-04-07 11:52:00,
2013-04-07 07:58:00,39.8,28.6,30.27,South,175,0.0,4.0,64,0.00,,---,0.00,VWS V14.01,2013-04-07 11:58:00,
2013-04-07 08:00:00,39.8,28.6,30.26,South,175,2.0,4.0,64,0.00,,---,0.00,VWS V14.01,2013-04-07 12:00:00,
2013-04-07 08:05:00,39.8,28.2,30.27,South,184,0.0,5.0,63,0.00,,---,0.00,VWS V14.01,2013-04-07 12:05:00,
2013-04-07 08:10:00,40.0,28.4,30.27,South,184,0.0,5.0,63,0.00,,---,0.00,VWS V14.01,2013-04-07 12:10:00,
2013-04-07 08:15:00,40.2,28.2,30.27,SSW,202,1.0,5.0,62,0.00,,---,0.00,VWS V14.01,2013-04-07 12:15:00,
2013-04-07 08:20:00,40.3,28.3,30.27,SSE,161,2.0,6.0,62,0.00,,---,0.00,VWS V14.01,2013-04-07 12:20:00,
2013-04-07 08:26:00,40.4,28.0,30.26,SSE,167,2.0,6.0,61,0.00,,---,0.00,VWS V14.01,2013-04-07 12:26:00,
2013-04-07 08:30:00,40.6,27.8,30.26,South,188,3.0,6.0,60,0.00,,---,0.00,VWS V14.01,2013-04-07 12:30:00,
2013-04-07 08:31:00,40.6,27.8,30.26,South,188,3.0,6.0,60,0.00,,---,0.00,VWS V14.01,2013-04-07 12:31:00,
2013-04-07 08:36:00,40.7,27.9,30.26,SSW,199,2.0,7.0,60,0.00,,---,0.00,VWS V14.01,2013-04-07 12:36:00,
2013-04-07 08:41:00,41.0,28.2,30.26,SW,215,1.0,7.0,60,0.00,,---,0.00,VWS V14.01,2013-04-07 12:41:00,
2013-04-07 08:45:00,41.3,28.5,30.26,South,181,4.0,7.0,60,0.00,,---,0.00,VWS V14.01,2013-04-07 12:45:00,
2013-04-07 08:47:00,41.3,28.5,30.25,SE,138,2.0,6.0,60,0.00,,---,0.00,VWS V14.01,2013-04-07 12:47:00,
2013-04-07 08:53:00,41.9,28.6,30.25,SSE,150,3.0,6.0,59,0.00,,---,0.00,VWS V14.01,2013-04-07 12:53:00,
2013-04-07 08:58:00,42.4,28.3,30.25,SSW,204,1.0,8.0,57,0.00,,---,0.00,VWS V14.01,2013-04-07 12:58:00,
2013-04-07 09:00:00,42.6,28.9,30.25,SE,138,4.0,8.0,58,0.00,,---,0.00,VWS V14.01,2013-04-07 13:00:00,
2013-04-07 09:04:00,42.8,28.2,30.25,SW,229,5.0,9.0,56,0.00,,---,0.00,VWS V14.01,2013-04-07 13:04:00,
2013-04-07 09:09:00,43.5,28.4,30.25,SSE,164,4.0,9.0,55,0.00,,---,0.00,VWS V14.01,2013-04-07 13:09:00,
2013-04-07 09:14:00,44.5,28.9,30.25,SW,229,10.0,10.0,54,0.00,,---,0.00,VWS V14.01,2013-04-07 13:14:00,
2013-04-07 09:15:00,44.5,28.5,30.25,SW,226,2.0,15.0,53,0.00,,---,0.00,VWS V14.01,2013-04-07 13:15:00,
2013-04-07 09:19:00,44.5,28.0,30.25,SW,220,5.0,8.0,52,0.00,,---,0.00,VWS V14.01,2013-04-07 13:19:00,
2013-04-07 09:24:00,44.5,27.5,30.25,WSW,243,6.0,11.0,51,0.00,,---,0.00,VWS V14.01,2013-04-07 13:24:00,
2013-04-07 09:29:00,44.7,28.2,30.25,South,175,4.0,11.0,52,0.00,,---,0.00,VWS V14.01,2013-04-07 13:29:00,
2013-04-07 09:30:00,44.9,27.9,30.25,SSE,166,5.0,11.0,51,0.00,,---,0.00,VWS V14.01,2013-04-07 13:30:00,
2013-04-07 09:35:00,45.0,28.0,30.25,SSE,163,4.0,10.0,51,0.00,,---,0.00,VWS V14.01,2013-04-07 13:35:00,
2013-04-07 09:40:00,45.5,28.9,30.24,South,188,7.0,10.0,52,0.00,,---,0.00,VWS V14.01,2013-04-07 13:40:00,
2013-04-07 09:45:00,45.8,28.7,30.24,SSW,210,4.0,10.0,51,0.00,,---,0.00,VWS V14.01,2013-04-07 13:45:00,
2013-04-07 09:50:00,45.6,29.0,30.24,SW,232,3.0,8.0,52,0.00,,---,0.00,VWS V14.01,2013-04-07 13:50:00,
2013-04-07 09:55:00,46.3,28.7,30.24,WSW,240,3.0,8.0,50,0.00,,---,0.00,VWS V14.01,2013-04-07 13:55:00,
2013-04-07 10:00:00,46.6,29.0,30.24,SW,227,6.0,9.0,50,0.00,,---,0.00,VWS V14.01,2013-04-07 14:00:00,
2013-04-07 10:01:00,46.6,29.0,30.24,SW,225,5.0,7.0,50,0.00,,---,0.00,VWS V14.01,2013-04-07 14:01:00,
2013-04-07 10:07:00,47.6,29.4,30.24,SW,214,4.0,11.0,49,0.00,,---,0.00,VWS V14.01,2013-04-07 14:07:00,
2013-04-07 10:12:00,48.4,30.1,30.23,SSE,163,3.0,11.0,49,0.00,,---,0.00,VWS V14.01,2013-04-07 14:12:00,
2013-04-07 10:15:00,48.6,29.8,30.23,SW,227,4.0,11.0,48,0.00,,---,0.00,VWS V14.01,2013-04-07 14:15:00,
2013-04-07 10:17:00,48.5,30.2,30.23,WSW,240,1.0,7.0,49,0.00,,---,0.00,VWS V14.01,2013-04-07 14:17:00,
2013-04-07 10:23:00,48.5,29.2,30.23,South,190,5.0,9.0,47,0.00,,---,0.00,VWS V14.01,2013-04-07 14:23:00,
2013-04-07 10:28:00,48.4,28.0,30.23,SSW,194,7.0,14.0,45,0.00,,---,0.00,VWS V14.01,2013-04-07 14:28:00,
2013-04-07 10:30:00,48.5,28.7,30.23,SSW,211,8.0,14.0,46,0.00,,---,0.00,VWS V14.01,2013-04-07 14:30:00,
2013-04-07 10:33:00,48.3,28.0,30.23,SW,216,14.0,14.0,45,0.00,,---,0.00,VWS V14.01,2013-04-07 14:33:00,
2013-04-07 10:38:00,48.8,27.9,30.22,South,170,9.0,14.0,44,0.00,,---,0.00,VWS V14.01,2013-04-07 14:38:00,
2013-04-07 10:44:00,49.0,27.5,30.22,SW,227,8.0,17.0,43,0.00,,---,0.00,VWS V14.01,2013-04-07 14:44:00,
2013-04-07 10:45:00,49.0,27.5,30.22,SW,224,8.0,17.0,43,0.00,,---,0.00,VWS V14.01,2013-04-07 14:45:00,
2013-04-07 10:49:00,48.8,27.3,30.22,WSW,246,11.0,16.0,43,0.00,,---,0.00,VWS V14.01,2013-04-07 14:49:00,
2013-04-07 10:55:00,49.4,27.9,30.22,SSW,192,2.0,16.0,43,0.00,,---,0.00,VWS V14.01,2013-04-07 14:55:00,
2013-04-07 11:00:00,50.0,28.4,30.22,SSW,213,7.0,16.0,43,0.00,,---,0.00,VWS V14.01,2013-04-07 15:00:00,
2013-04-07 11:01:00,50.0,28.4,30.22,South,190,7.0,16.0,43,0.00,,---,0.00,VWS V14.01,2013-04-07 15:01:00,
2013-04-07 11:07:00,50.0,28.4,30.21,SSW,193,7.0,13.0,43,0.00,,---,0.00,VWS V14.01,2013-04-07 15:07:00,
2013-04-07 11:12:00,51.2,27.7,30.21,South,184,7.0,15.0,40,0.00,,---,0.00,VWS V14.01,2013-04-07 15:12:00,
2013-04-07 11:15:00,50.9,27.5,30.20,South,175,4.0,15.0,40,0.00,,---,0.00,VWS V14.01,2013-04-07 15:15:00,
2013-04-07 11:18:00,51.2,27.7,30.21,SSW,198,11.0,11.0,40,0.00,,---,0.00,VWS V14.01,2013-04-07 15:18:00,
2013-04-07 11:23:00,51.7,27.6,30.20,SW,225,14.0,14.0,39,0.00,,---,0.00,VWS V14.01,2013-04-07 15:23:00,
2013-04-07 11:28:00,52.0,26.5,30.20,SSW,193,3.0,14.0,37,0.00,,---,0.00,VWS V14.01,2013-04-07 15:28:00,
2013-04-07 11:30:00,52.7,27.2,30.20,SSE,163,4.0,14.0,37,0.00,,---,0.00,VWS V14.01,2013-04-07 15:30:00,
2013-04-07 11:33:00,53.0,28.1,30.20,South,178,5.0,9.0,38,0.00,,---,0.00,VWS V14.01,2013-04-07 15:33:00,
2013-04-07 11:39:00,52.6,26.4,30.20,SW,223,6.0,14.0,36,0.00,,---,0.00,VWS V14.01,2013-04-07 15:39:00,
2013-04-07 11:44:00,52.6,27.1,30.19,SW,223,5.0,14.0,37,0.00,,---,0.00,VWS V14.01,2013-04-07 15:44:00,
2013-04-07 11:45:00,52.7,27.2,30.19,SW,233,10.0,14.0,37,0.00,,---,0.00,VWS V14.01,2013-04-07 15:45:00,
2013-04-07 11:50:00,52.5,27.6,30.18,WSW,246,6.0,15.0,38,0.00,,---,0.00,VWS V14.01,2013-04-07 15:50:00,
2013-04-07 11:55:00,52.5,27.0,30.18,West,264,8.0,16.0,37,0.00,,---,0.00,VWS V14.01,2013-04-07 15:55:00,
2013-04-07 12:00:00,53.0,26.8,30.17,WSW,242,6.0,16.0,36,0.00,,---,0.00,VWS V14.01,2013-04-07 16:00:00,
2013-04-07 12:01:00,53.0,26.8,30.17,WSW,248,4.0,6.0,36,0.00,,---,0.00,VWS V14.01,2013-04-07 16:01:00,
2013-04-07 12:06:00,53.0,26.8,30.17,SSW,200,4.0,13.0,36,0.00,,---,0.00,VWS V14.01,2013-04-07 16:06:00,
2013-04-07 12:12:00,54.3,27.2,30.16,WSW,240,13.0,13.0,35,0.00,,---,0.00,VWS V14.01,2013-04-07 16:12:00,
2013-04-07 12:15:00,53.9,25.5,30.16,WSW,238,5.0,16.0,33,0.00,,---,0.00,VWS V14.01,2013-04-07 16:15:00,
2013-04-07 12:17:00,53.9,26.2,30.16,SSW,210,9.0,9.0,34,0.00,,---,0.00,VWS V14.01,2013-04-07 16:17:00,
2013-04-07 12:22:00,53.9,26.2,30.16,WSW,240,8.0,15.0,34,0.00,,---,0.00,VWS V14.01,2013-04-07 16:22:00,
2013-04-07 12:28:00,54.7,26.9,30.15,SSW,211,4.0,15.0,34,0.00,,---,0.00,VWS V14.01,2013-04-07 16:28:00,
2013-04-07 12:30:00,55.1,26.5,30.15,South,179,4.0,15.0,33,0.00,,---,0.00,VWS V14.01,2013-04-07 16:30:00,
2013-04-07 12:33:00,55.7,26.3,30.14,SSE,168,11.0,11.0,32,0.00,,---,0.00,VWS V14.01,2013-04-07 16:33:00,
2013-04-07 12:38:00,56.3,26.8,30.14,South,171,8.0,13.0,32,0.00,,---,0.00,VWS V14.01,2013-04-07 16:38:00,
2013-04-07 12:43:00,56.3,26.8,30.14,SW,217,7.0,13.0,32,0.00,,---,0.00,VWS V14.01,2013-04-07 16:43:00,
2013-04-07 12:45:00,56.4,26.9,30.14,South,174,7.0,13.0,32,0.00,,---,0.00,VWS V14.01,2013-04-07 16:45:00,
2013-04-07 12:48:00,56.0,25.8,30.13,South,182,8.0,13.0,31,0.00,,---,0.00,VWS V14.01,2013-04-07 16:48:00,
2013-04-07 12:54:00,57.1,28.3,30.13,South,178,6.0,13.0,33,0.00,,---,0.00,VWS V14.01,2013-04-07 16:54:00,
2013-04-07 13:00:00,57.1,27.5,30.13,South,178,8.0,14.0,32,0.00,,---,0.00,VWS V14.01,2013-04-07 17:00:00,
2013-04-07 13:05:00,57.2,28.4,30.12,SW,221,8.0,11.0,33,0.00,,---,0.00,VWS V14.01,2013-04-07 17:05:00,
2013-04-07 13:11:00,57.5,28.6,30.12,SSE,153,7.0,11.0,33,0.00,,---,0.00,VWS V14.01,2013-04-07 17:11:00,
2013-04-07 13:15:00,57.8,27.4,30.11,SSW,194,8.0,17.0,31,0.00,,---,0.00,VWS V14.01,2013-04-07 17:15:00,
2013-04-07 13:16:00,57.9,27.5,30.11,SSW,201,7.0,17.0,31,0.00,,---,0.00,VWS V14.01,2013-04-07 17:16:00,
2013-04-07 13:21:00,57.8,26.6,30.11,SSW,203,13.0,14.0,30,0.00,,---,0.00,VWS V14.01,2013-04-07 17:21:00,
2013-04-07 13:26:00,58.0,28.3,30.11,South,188,3.0,14.0,32,0.00,,---,0.00,VWS V14.01,2013-04-07 17:26:00,
2013-04-07 13:30:00,58.7,28.9,30.11,SE,125,12.0,14.0,32,0.00,,---,0.00,VWS V14.01,2013-04-07 17:30:00,
2013-04-07 13:32:00,59.0,30.7,30.11,SW,217,5.0,12.0,34,0.00,,---,0.00,VWS V14.01,2013-04-07 17:32:00,
2013-04-07 13:38:00,59.0,28.4,30.11,West,271,15.0,15.0,31,0.00,,---,0.00,VWS V14.01,2013-04-07 17:38:00,
2013-04-07 13:43:00,59.5,28.9,30.10,SSW,207,7.0,15.0,31,0.00,,---,0.00,VWS V14.01,2013-04-07 17:43:00,
2013-04-07 13:45:00,59.1,29.3,30.11,SW,225,8.0,16.0,32,0.00,,---,0.00,VWS V14.01,2013-04-07 17:45:00,
2013-04-07 13:48:00,59.0,29.2,30.10,South,173,9.0,13.0,32,0.00,,---,0.00,VWS V14.01,2013-04-07 17:48:00,
2013-04-07 13:53:00,59.9,30.8,30.10,WSW,252,11.0,13.0,33,0.00,,---,0.00,VWS V14.01,2013-04-07 17:53:00,
2013-04-07 13:58:00,59.8,31.4,30.10,SSW,204,9.0,18.0,34,0.00,,---,0.00,VWS V14.01,2013-04-07 17:58:00,
2013-04-07 14:00:00,59.5,31.1,30.09,SSW,209,3.0,18.0,34,0.00,,---,0.00,VWS V14.01,2013-04-07 18:00:00,
2013-04-07 14:03:00,59.8,30.7,30.09,WSW,248,12.0,15.0,33,0.00,,---,0.00,VWS V14.01,2013-04-07 18:03:00,
2013-04-07 14:08:00,59.7,31.3,30.09,SSE,152,7.0,21.0,34,0.00,,---,0.00,VWS V14.01,2013-04-07 18:08:00,
2013-04-07 14:13:00,60.8,32.3,30.08,East,91,8.0,21.0,34,0.00,,---,0.00,VWS V14.01,2013-04-07 18:13:00,
2013-04-07 14:15:00,61.1,32.5,30.08,SW,214,5.0,21.0,34,0.00,,---,0.00,VWS V14.01,2013-04-07 18:15:00,
2013-04-07 14:20:00,61.5,32.9,30.08,WSW,250,7.0,11.0,34,0.00,,---,0.00,VWS V14.01,2013-04-07 18:20:00,
2013-04-07 14:25:00,61.7,33.1,30.08,SW,220,5.0,12.0,34,0.00,,---,0.00,VWS V14.01,2013-04-07 18:25:00,
2013-04-07 14:30:00,61.6,33.0,30.08,South,172,6.0,16.0,34,0.00,,---,0.00,VWS V14.01,2013-04-07 18:30:00,
2013-04-07 14:35:00,61.5,32.9,30.08,SW,221,6.0,14.0,34,0.00,,---,0.00,VWS V14.01,2013-04-07 18:35:00,
2013-04-07 14:40:00,61.9,34.0,30.07,South,181,5.0,14.0,35,0.00,,---,0.00,VWS V14.01,2013-04-07 18:40:00,
2013-04-07 14:45:00,62.1,33.4,30.06,West,281,3.0,14.0,34,0.00,,---,0.00,VWS V14.01,2013-04-07 18:45:00,
2013-04-07 14:46:00,62.1,33.4,30.06,West,281,3.0,14.0,34,0.00,,---,0.00,VWS V14.01,2013-04-07 18:46:00,
2013-04-07 14:51:00,62.2,34.2,30.06,South,182,8.0,14.0,35,0.00,,---,0.00,VWS V14.01,2013-04-07 18:51:00,
2013-04-07 14:57:00,62.4,33.7,30.06,SSE,161,7.0,14.0,34,0.00,,---,0.00,VWS V14.01,2013-04-07 18:57:00,
2013-04-07 15:00:00,62.4,34.4,30.06,SSW,206,13.0,14.0,35,0.00,,---,0.00,VWS V14.01,2013-04-07 19:00:00,
2013-04-07 15:02:00,62.3,35.0,30.05,SSW,209,5.0,19.0,36,0.00,,---,0.00,VWS V14.01,2013-04-07 19:02:00,
2013-04-07 15:07:00,62.6,36.0,30.05,South,190,5.0,19.0,37,0.00,,---,0.00,VWS V14.01,2013-04-07 19:07:00,
2013-04-07 15:12:00,63.6,36.2,30.05,South,171,10.0,19.0,36,0.00,,---,0.00,VWS V14.01,2013-04-07 19:12:00,
2013-04-07 15:15:00,63.3,35.9,30.04,SSW,205,7.0,19.0,36,0.00,,---,0.00,VWS V14.01,2013-04-07 19:15:00,
2013-04-07 15:18:00,63.0,35.7,30.04,South,175,10.0,15.0,36,0.00,,---,0.00,VWS V14.01,2013-04-07 19:18:00,
2013-04-07 15:23:00,62.5,35.9,30.04,SW,221,10.0,15.0,37,0.00,,---,0.00,VWS V14.01,2013-04-07 19:23:00,
2013-04-07 15:28:00,63.0,37.0,30.03,WSW,252,5.0,15.0,38,0.00,,---,0.00,VWS V14.01,2013-04-07 19:28:00,
2013-04-07 15:30:00,63.3,36.6,30.02,SSE,167,12.0,16.0,37,0.00,,---,0.00,VWS V14.01,2013-04-07 19:30:00,
2013-04-07 15:34:00,63.4,36.7,30.02,SW,225,12.0,15.0,37,0.00,,---,0.00,VWS V14.01,2013-04-07 19:34:00,
2013-04-07 15:39:00,63.0,37.0,30.02,SSW,192,4.0,15.0,38,0.00,,---,0.00,VWS V14.01,2013-04-07 19:39:00,
2013-04-07 15:45:00,63.4,38.7,30.02,WSW,239,7.0,15.0,40,0.00,,---,0.00,VWS V14.01,2013-04-07 19:45:00,
2013-04-07 15:50:00,62.8,36.8,30.01,South,175,11.0,19.0,38,0.00,,---,0.00,VWS V14.01,2013-04-07 19:50:00,
2013-04-07 15:55:00,62.8,37.5,30.01,SSW,194,7.0,19.0,39,0.00,,---,0.00,VWS V14.01,2013-04-07 19:55:00,
2013-04-07 16:00:00,62.5,38.5,30.01,SW,215,7.0,22.0,41,0.00,,---,0.00,VWS V14.01,2013-04-07 20:00:00,
2013-04-07 16:06:00,63.2,39.1,30.00,SSE,166,4.0,18.0,41,0.00,,---,0.00,VWS V14.01,2013-04-07 20:06:00,
2013-04-07 16:11:00,63.8,38.4,30.00,South,178,9.0,18.0,39,0.00,,---,0.00,VWS V14.01,2013-04-07 20:11:00,
2013-04-07 16:15:00,63.3,38.6,30.00,South,178,4.0,18.0,40,0.00,,---,0.00,VWS V14.01,2013-04-07 20:15:00,
2013-04-07 16:17:00,63.3,38.6,30.00,SE,135,9.0,9.0,40,0.00,,---,0.00,VWS V14.01,2013-04-07 20:17:00,
2013-04-07 16:22:00,63.3,39.2,30.00,SSE,163,8.0,18.0,41,0.00,,---,0.00,VWS V14.01,2013-04-07 20:22:00,
2013-04-07 16:27:00,63.0,39.0,29.99,SSE,155,13.0,18.0,41,0.00,,---,0.00,VWS V14.01,2013-04-07 20:27:00,
2013-04-07 16:30:00,63.4,39.3,29.99,SSW,208,2.0,18.0,41,0.00,,---,0.00,VWS V14.01,2013-04-07 20:30:00,
2013-04-07 16:33:00,63.4,38.7,29.99,WSW,239,10.0,15.0,40,0.00,,---,0.00,VWS V14.01,2013-04-07 20:33:00,
2013-04-07 16:38:00,63.6,39.5,30.00,West,274,9.0,15.0,41,0.00,,---,0.00,VWS V14.01,2013-04-07 20:38:00,
2013-04-07 16:43:00,64.0,40.5,30.00,South,178,11.0,15.0,42,0.00,,---,0.00,VWS V14.01,2013-04-07 20:43:00,
2013-04-07 16:45:00,63.9,39.8,30.00,SSE,159,6.0,15.0,41,0.00,,---,0.00,VWS V14.01,2013-04-07 20:45:00,
2013-04-07 16:49:00,63.4,39.3,30.00,SW,232,9.0,16.0,41,0.00,,---,0.00,VWS V14.01,2013-04-07 20:49:00,
2013-04-07 16:54:00,62.8,39.4,30.00,SW,227,5.0,16.0,42,0.00,,---,0.00,VWS V14.01,2013-04-07 20:54:00,
2013-04-07 16:59:00,63.3,39.2,30.00,SSW,203,10.0,18.0,41,0.00,,---,0.00,VWS V14.01,2013-04-07 20:59:00,
2013-04-07 17:00:00,63.3,39.8,30.00,SW,226,6.0,18.0,42,0.00,,---,0.00,VWS V14.01,2013-04-07 21:00:00,
2013-04-07 17:04:00,63.1,39.0,30.00,SSW,205,7.0,14.0,41,0.00,,---,0.00,VWS V14.01,2013-04-07 21:04:00,
2013-04-07 17:11:00,62.5,39.1,30.00,SSW,198,15.0,20.0,42,0.00,,---,0.00,VWS V14.01,2013-04-07 21:11:00,
2013-04-07 17:15:00,62.5,39.1,30.00,SW,223,6.0,20.0,42,0.00,,---,0.00,VWS V14.01,2013-04-07 21:15:00,
2013-04-07 17:16:00,62.5,39.7,30.00,SSW,199,7.0,8.0,43,0.00,,---,0.00,VWS V14.01,2013-04-07 21:16:00,
2013-04-07 17:21:00,62.4,39.0,30.00,SW,234,8.0,19.0,42,0.00,,---,0.00,VWS V14.01,2013-04-07 21:21:00,
2013-04-07 17:26:00,62.2,39.5,29.99,SW,225,15.0,19.0,43,0.00,,---,0.00,VWS V14.01,2013-04-07 21:26:00,
2013-04-07 17:30:00,62.0,39.9,29.98,WSW,243,9.0,19.0,44,0.00,,---,0.00,VWS V14.01,2013-04-07 21:30:00,
2013-04-07 17:32:00,61.8,39.7,29.98,SSW,204,7.0,12.0,44,0.00,,---,0.00,VWS V14.01,2013-04-07 21:32:00,
2013-04-07 17:38:00,61.5,40.5,29.98,South,181,1.0,14.0,46,0.00,,---,0.00,VWS V14.01,2013-04-07 21:38:00,
2013-04-07 17:43:00,61.5,40.5,29.98,South,186,7.0,14.0,46,0.00,,---,0.00,VWS V14.01,2013-04-07 21:43:00,
2013-04-07 17:45:00,61.3,40.9,29.98,SSE,163,6.0,14.0,47,0.00,,---,0.00,VWS V14.01,2013-04-07 21:45:00,
2013-04-07 17:48:00,61.3,40.9,29.98,SE,139,9.0,9.0,47,0.00,,---,0.00,VWS V14.01,2013-04-07 21:48:00,
2013-04-07 17:53:00,61.3,40.9,29.98,South,186,6.0,10.0,47,0.00,,---,0.00,VWS V14.01,2013-04-07 21:53:00,
2013-04-07 17:59:00,60.8,41.0,29.99,South,182,4.0,12.0,48,0.00,,---,0.00,VWS V14.01,2013-04-07 21:59:00,
2013-04-07 18:00:00,60.7,40.9,29.99,WSW,241,5.0,12.0,48,0.00,,---,0.00,VWS V14.01,2013-04-07 22:00:00,
2013-04-07 18:04:00,60.6,40.8,29.99,South,191,2.0,7.0,48,0.00,,---,0.00,VWS V14.01,2013-04-07 22:04:00,
2013-04-07 18:09:00,60.4,41.2,29.99,South,179,4.0,11.0,49,0.00,,---,0.00,VWS V14.01,2013-04-07 22:09:00,
2013-04-07 18:14:00,60.0,41.3,29.99,South,170,5.0,11.0,50,0.00,,---,0.00,VWS V14.01,2013-04-07 22:14:00,
2013-04-07 18:15:00,59.9,41.2,29.99,South,180,3.0,11.0,50,0.00,,---,0.00,VWS V14.01,2013-04-07 22:15:00,
2013-04-07 18:20:00,59.8,41.1,29.99,SSW,194,4.0,8.0,50,0.00,,---,0.00,VWS V14.01,2013-04-07 22:20:00,
2013-04-07 18:25:00,59.7,41.6,29.99,South,185,4.0,10.0,51,0.00,,---,0.00,VWS V14.01,2013-04-07 22:25:00,
2013-04-07 18:30:00,59.6,41.5,29.99,WSW,246,8.0,10.0,51,0.00,,---,0.00,VWS V14.01,2013-04-07 22:30:00,
2013-04-07 18:31:00,59.6,41.5,29.99,WSW,246,8.0,10.0,51,0.00,,---,0.00,VWS V14.01,2013-04-07 22:31:00,
2013-04-07 18:36:00,59.4,41.3,29.99,South,169,5.0,10.0,51,0.00,,---,0.00,VWS V14.01,2013-04-07 22:36:00,
2013-04-07 18:42:00,59.2,41.1,29.99,SSE,163,7.0,10.0,51,0.00,,---,0.00,VWS V14.01,2013-04-07 22:42:00,
2013-04-07 18:45:00,59.0,41.4,30.00,SSW,194,1.0,10.0,52,0.00,,---,0.00,VWS V14.01,2013-04-07 22:45:00,
2013-04-07 18:47:00,59.0,41.9,30.00,South,177,3.0,3.0,53,0.00,,---,0.00,VWS V14.01,2013-04-07 22:47:00,
2013-04-07 18:53:00,58.9,41.8,30.00,SSW,211,7.0,10.0,53,0.00,,---,0.00,VWS V14.01,2013-04-07 22:53:00,
2013-04-07 18:58:00,58.5,41.9,30.00,SW,220,0.0,10.0,54,0.00,,---,0.00,VWS V14.01,2013-04-07 22:58:00,
2013-04-07 19:00:00,58.4,41.3,30.00,SW,219,4.0,11.0,53,0.00,,---,0.00,VWS V14.01,2013-04-07 23:00:00,
2013-04-07 19:03:00,58.3,41.8,30.00,SW,222,2.0,10.0,54,0.00,,---,0.00,VWS V14.01,2013-04-07 23:03:00,
2013-04-07 19:08:00,58.2,41.7,30.00,South,179,9.0,11.0,54,0.00,,---,0.00,VWS V14.01,2013-04-07 23:08:00,
2013-04-07 19:14:00,58.0,41.9,30.00,South,189,4.0,11.0,55,0.00,,---,0.00,VWS V14.01,2013-04-07 23:14:00,
2013-04-07 19:15:00,57.9,41.8,30.00,South,176,5.0,11.0,55,0.00,,---,0.00,VWS V14.01,2013-04-07 23:15:00,
2013-04-07 19:19:00,58.0,41.9,30.00,SW,223,6.0,10.0,55,0.00,,---,0.00,VWS V14.01,2013-04-07 23:19:00,
2013-04-07 19:24:00,57.8,41.8,30.00,SSW,192,6.0,12.0,55,0.00,,---,0.00,VWS V14.01,2013-04-07 23:24:00,
2013-04-07 19:29:00,57.6,42.0,30.00,SW,230,11.0,13.0,56,0.00,,---,0.00,VWS V14.01,2013-04-07 23:29:00,
2013-04-07 19:30:00,57.5,41.9,30.00,WSW,257,5.0,13.0,56,0.00,,---,0.00,VWS V14.01,2013-04-07 23:30:00,
2013-04-07 19:35:00,57.3,41.8,30.00,SSW,196,6.0,9.0,56,0.00,,---,0.00,VWS V14.01,2013-04-07 23:35:00,
2013-04-07 19:40:00,57.3,41.8,30.01,SSW,200,7.0,11.0,56,0.00,,---,0.00,VWS V14.01,2013-04-07 23:40:00,
2013-04-07 19:45:00,57.1,42.0,30.00,West,269,4.0,13.0,57,0.00,,---,0.00,VWS V14.01,2013-04-07 23:45:00,
2013-04-07 19:50:00,56.9,41.8,30.01,South,186,3.0,7.0,57,0.00,,---,0.00,VWS V14.01,2013-04-07 23:50:00,
2013-04-07 19:56:00,56.8,41.8,30.01,SSW,198,3.0,9.0,57,0.00,,---,0.00,VWS V14.01,2013-04-07 23:56:00,
2013-04-07 20:00:00,56.6,42.0,30.01,SSW,198,8.0,9.0,58,0.00,,---,0.00,VWS V14.01,2013-04-08 00:00:00,
2013-04-07 20:01:00,56.5,41.9,30.01,South,188,4.0,8.0,58,0.00,,---,0.00,VWS V14.01,2013-04-08 00:01:00,
2013-04-07 20:07:00,56.4,41.8,30.01,SSW,195,6.0,12.0,58,0.00,,---,0.00,VWS V14.01,2013-04-08 00:07:00,
2013-04-07 20:12:00,56.2,42.1,30.01,SSW,194,12.0,12.0,59,0.00,,---,0.00,VWS V14.01,2013-04-08 00:12:00,
2013-04-07 20:15:00,56.0,41.9,30.01,South,178,3.0,12.0,59,0.00,,---,0.00,VWS V14.01,2013-04-08 00:15:00,
2013-04-07 20:17:00,56.0,41.9,30.01,SW,220,4.0,5.0,59,0.00,,---,0.00,VWS V14.01,2013-04-08 00:17:00,
2013-04-07 20:23:00,55.9,41.8,30.02,SSW,201,4.0,9.0,59,0.00,,---,0.00,VWS V14.01,2013-04-08 00:23:00,
2013-04-07 20:28:00,55.8,42.1,30.02,SSE,154,4.0,9.0,60,0.00,,---,0.00,VWS V14.01,2013-04-08 00:28:00,
2013-04-07 20:30:00,55.8,42.1,30.02,SSW,209,3.0,9.0,60,0.00,,---,0.00,VWS V14.01,2013-04-08 00:30:00,
2013-04-07 20:33:00,55.8,42.1,30.02,WNW,283,2.0,4.0,60,0.00,,---,0.00,VWS V14.01,2013-04-08 00:33:00,
2013-04-07 20:39:00,55.7,42.0,30.02,South,174,2.0,9.0,60,0.00,,---,0.00,VWS V14.01,2013-04-08 00:39:00,
2013-04-07 20:44:00,55.4,41.8,30.02,South,184,5.0,9.0,60,0.00,,---,0.00,VWS V14.01,2013-04-08 00:44:00,
2013-04-07 20:45:00,55.3,42.1,30.02,SSW,192,4.0,10.0,61,0.00,,---,0.00,VWS V14.01,2013-04-08 00:45:00,
2013-04-07 20:49:00,55.3,42.1,30.02,SSW,197,0.0,8.0,61,0.00,,---,0.00,VWS V14.01,2013-04-08 00:49:00,
2013-04-07 20:54:00,55.1,41.9,30.02,SSW,205,0.0,8.0,61,0.00,,---,0.00,VWS V14.01,2013-04-08 00:54:00,
2013-04-07 21:00:00,54.9,41.7,30.02,South,178,0.0,8.0,61,0.00,,---,0.00,VWS V14.01,2013-04-08 01:00:00,
2013-04-07 21:05:00,54.8,42.0,30.02,SSW,195,3.0,7.0,62,0.00,,---,0.00,VWS V14.01,2013-04-08 01:05:00,
2013-04-07 21:11:00,54.6,41.9,30.02,SSE,167,0.0,7.0,62,0.00,,---,0.00,VWS V14.01,2013-04-08 01:11:00,
2013-04-07 21:15:00,54.4,42.1,30.02,SSW,202,0.0,8.0,63,0.00,,---,0.00,VWS V14.01,2013-04-08 01:15:00,
2013-04-07 21:17:00,54.4,41.7,30.02,SSW,202,0.0,0.0,62,0.00,,---,0.00,VWS V14.01,2013-04-08 01:17:00,
2013-04-07 21:22:00,54.2,41.9,30.02,SSE,159,0.0,5.0,63,0.00,,---,0.00,VWS V14.01,2013-04-08 01:22:00,
2013-04-07 21:27:00,54.1,41.8,30.02,South,188,1.0,6.0,63,0.00,,---,0.00,VWS V14.01,2013-04-08 01:27:00,
2013-04-07 21:30:00,54.1,42.2,30.02,South,178,1.0,6.0,64,0.00,,---,0.00,VWS V14.01,2013-04-08 01:30:00,
2013-04-07 21:33:00,54.0,42.1,30.02,South,172,4.0,7.0,64,0.00,,---,0.00,VWS V14.01,2013-04-08 01:33:00,
2013-04-07 21:38:00,54.0,42.1,30.02,SSE,157,2.0,10.0,64,0.00,,---,0.00,VWS V14.01,2013-04-08 01:38:00,
2013-04-07 21:43:00,54.0,42.1,30.02,South,188,0.0,10.0,64,0.00,,---,0.00,VWS V14.01,2013-04-08 01:43:00,
2013-04-07 21:45:00,53.9,42.0,30.02,South,173,4.0,10.0,64,0.00,,---,0.00,VWS V14.01,2013-04-08 01:45:00,
2013-04-07 21:49:00,53.8,41.9,30.02,South,173,3.0,6.0,64,0.00,,---,0.00,VWS V14.01,2013-04-08 01:49:00,
2013-04-07 21:55:00,53.6,42.1,30.02,SSE,159,1.0,6.0,65,0.00,,---,0.00,VWS V14.01,2013-04-08 01:55:00,
2013-04-07 22:00:00,53.5,42.0,30.02,SSW,205,0.0,6.0,65,0.00,,---,0.00,VWS V14.01,2013-04-08 02:00:00,
2013-04-07 22:05:00,53.5,42.0,30.02,South,180,0.0,6.0,65,0.00,,---,0.00,VWS V14.01,2013-04-08 02:05:00,
2013-04-07 22:10:00,53.3,41.8,30.02,South,183,0.0,8.0,65,0.00,,---,0.00,VWS V14.01,2013-04-08 02:10:00,
2013-04-07 22:15:00,53.2,41.8,30.02,SSW,192,0.0,8.0,65,0.00,,---,0.00,VWS V14.01,2013-04-08 02:15:00,
2013-04-07 22:20:00,53.1,41.7,30.02,South,183,3.0,8.0,65,0.00,,---,0.00,VWS V14.01,2013-04-08 02:20:00,
2013-04-07 22:26:00,53.0,41.6,30.02,SSE,162,3.0,8.0,65,0.00,,---,0.00,VWS V14.01,2013-04-08 02:26:00,
2013-04-07 22:30:00,52.9,41.9,30.02,South,175,0.0,8.0,66,0.00,,---,0.00,VWS V14.01,2013-04-08 02:30:00,
2013-04-07 22:31:00,52.9,41.9,30.02,South,175,0.0,8.0,66,0.00,,---,0.00,VWS V14.01,2013-04-08 02:31:00,
2013-04-07 22:36:00,52.8,41.8,30.01,SSW,193,5.0,7.0,66,0.00,,---,0.00,VWS V14.01,2013-04-08 02:36:00,
2013-04-07 22:42:00,52.7,41.7,30.01,South,191,4.0,7.0,66,0.00,,---,0.00,VWS V14.01,2013-04-08 02:42:00,
2013-04-07 22:45:00,52.6,41.6,30.01,SSW,207,0.0,7.0,66,0.00,,---,0.00,VWS V14.01,2013-04-08 02:45:00,
2013-04-07 22:47:00,52.6,41.6,30.01,SSW,206,4.0,4.0,66,0.00,,---,0.00,VWS V14.01,2013-04-08 02:47:00,
2013-04-07 22:52:00,52.5,41.5,30.01,SSW,208,4.0,7.0,66,0.00,,---,0.00,VWS V14.01,2013-04-08 02:52:00,
2013-04-07 22:57:00,52.5,41.5,30.01,South,173,2.0,7.0,66,0.00,,---,0.00,VWS V14.01,2013-04-08 02:57:00,
2013-04-07 23:00:00,52.4,41.4,30.01,WSW,238,0.0,7.0,66,0.00,,---,0.00,VWS V14.01,2013-04-08 03:00:00,
2013-04-07 23:03:00,52.3,41.3,30.01,WSW,238,0.0,1.0,66,0.00,,---,0.00,VWS V14.01,2013-04-08 03:03:00,
2013-04-07 23:08:00,52.3,41.7,30.00,SW,234,5.0,8.0,67,0.00,,---,0.00,VWS V14.01,2013-04-08 03:08:00,
2013-04-07 23:14:00,52.4,41.8,30.00,SW,217,5.0,10.0,67,0.00,,---,0.00,VWS V14.01,2013-04-08 03:14:00,
2013-04-07 23:15:00,52.4,41.8,30.00,South,186,4.0,10.0,67,0.00,,---,0.00,VWS V14.01,2013-04-08 03:15:00,
2013-04-07 23:20:00,52.4,41.8,30.00,SSW,212,10.0,12.0,67,0.00,,---,0.00,VWS V14.01,2013-04-08 03:20:00,
2013-04-07 23:26:00,52.4,41.8,30.00,SW,221,2.0,12.0,67,0.00,,---,0.00,VWS V14.01,2013-04-08 03:26:00,
2013-04-07 23:30:00,52.3,41.7,30.00,SSW,193,3.0,12.0,67,0.00,,---,0.00,VWS V14.01,2013-04-08 03:30:00,
2013-04-07 23:31:00,52.3,41.7,30.00,SSW,193,3.0,12.0,67,0.00,,---,0.00,VWS V14.01,2013-04-08 03:31:00,
2013-04-07 23:36:00,52.3,41.7,30.00,SSW,209,4.0,11.0,67,0.00,,---,0.00,VWS V14.01,2013-04-08 03:36:00,
2013-04-07 23:41:00,52.3,41.7,30.00,SW,226,4.0,14.0,67,0.00,,---,0.00,VWS V14.01,2013-04-08 03:41:00,
2013-04-07 23:45:00,52.3,41.7,30.00,SW,215,6.0,14.0,67,0.00,,---,0.00,VWS V14.01,2013-04-08 03:45:00,
2013-04-07 23:47:00,52.3,41.7,30.00,SSW,202,4.0,9.0,67,0.00,,---,0.00,VWS V14.01,2013-04-08 03:47:00,
2013-04-07 23:52:00,52.2,42.0,29.99,SSW,211,4.0,13.0,68,0.00,,---,0.00,VWS V14.01,2013-04-08 03:52:00,
2013-04-07 23:58:00,52.2,42.0,29.99,SSW,204,6.0,13.0,68,0.00,,---,0.00,VWS V14.01,2013-04-08 03:58:00,